Blacksburg, VA

8:56 PM EST on February 20, 2017 (GMT -0500)
Virginia Tech

Weather History for KBCB - January, 2014

Change the Weather History Date:

Tuesday, January 14, 2014

  Actual Average Record
Temperature  
Mean Temperature 38 °F 31 °F  
Max Temperature 49 °F 41 °F 67 °F (2007)
Min Temperature 26 °F 21 °F -6 °F (1977)
Degree Days  
Heating Degree Days 27 34  
Month to date heating degree days 489 476  
Since 1 July heating degree days 2584 2623  
Cooling Degree Days 0 0  
Month to date cooling degree days 0 0  
Year to date cooling degree days 0 0  
Moisture  
Dew Point 37 °F    
Average Humidity 78    
Maximum Humidity 100    
Minimum Humidity 56    
Precipitation  
Precipitation 0.26 in 0.11 in 1.22 in (1958)
Month to date precipitation 1.37 1.40  
Year to date precipitation 1.37 1.40  
Snow  
Snow 0.00 in - - ()
Month to date snowfall 0.4  
Since 1 July snowfall 0.5  
Snow Depth 0.00 in    
Sea Level Pressure  
Sea Level Pressure 29.86 in    
Wind  
Wind Speed 3 mph (WNW)    
Max Wind Speed 15 mph    
Max Gust Speed 21 mph    
Visibility 7 miles    
Events Rain    
T = Trace of Precipitation, MM = Missing Value Source: NWS Daily Summary

Daily Weather History Graph

Daily Weather History Graph

Search for Another Location

Airport or City:

Trip Planner

Search our weather history database for the weather conditions in past years. The results will help you decide how hot, cold, wet, or windy it might be!

Date:

Astronomy

Jan. 14, 2014 Rise Set
Actual Time 7:34 AM EST 5:27 PM EST
Civil Twilight 7:06 AM EST 5:55 PM EST
Nautical Twilight 6:34 AM EST 6:27 PM EST
Astronomical Twilight 6:02 AM EST 6:58 PM EST
Moon 4:30 PM EST (1/14) 6:08 AM EST (1/14)
Length of Visible Light 10h 49m
Length of Day
9h 52m
Waxing Gibbous, 98% of the Moon is Illuminated
Jan 14
Waxing Gibbous
Jan 15
Full
Jan 24
Last Quarter
Jan 30
New
Feb 6
First Quarter

Hourly Weather History & Observations

Time (EST) Temp. Windchill Dew Point Humidity Pressure Visibility Wind Dir Wind Speed Gust Speed Precip Events Conditions
12:15 AM 41.0 °F - 41.0 °F 100% 29.90 in 10.0 mi Calm Calm - 0.01 in Rain Rain
12:35 AM 41.0 °F - 41.0 °F 100% 29.88 in 10.0 mi Calm Calm - 0.01 in   Drizzle
12:55 AM 41.0 °F - 41.0 °F 100% 29.88 in 10.0 mi Calm Calm - 0.02 in Rain Light Rain
1:15 AM 42.8 °F - 42.8 °F 100% 29.87 in 10.0 mi Calm Calm - N/A   Light Drizzle
1:35 AM 42.8 °F - 41.0 °F 93% 29.86 in 2.5 mi Calm Calm - N/A Rain Heavy Rain
1:55 AM 41.0 °F - 41.0 °F 100% 29.85 in 2.5 mi Calm Calm - 0.02 in Rain Heavy Rain
2:15 AM 41.0 °F - 41.0 °F 100% 29.84 in 2.5 mi Calm Calm - 0.01 in Rain Rain
2:35 AM 41.0 °F - 41.0 °F 100% 29.84 in 2.5 mi Calm Calm - 0.02 in Rain Rain
2:55 AM 41.0 °F - 41.0 °F 100% 29.84 in 2.5 mi Calm Calm - 0.04 in Rain Light Rain
3:15 AM 41.0 °F - 41.0 °F 100% 29.83 in 2.5 mi Calm Calm - 0.01 in   Drizzle
3:35 AM 41.0 °F - 41.0 °F 100% 29.82 in 1.2 mi Calm Calm - 0.01 in Rain Rain
3:55 AM 39.2 °F - 39.2 °F 100% 29.81 in 4.0 mi Calm Calm - 0.01 in   Overcast
4:15 AM 39.2 °F - 39.2 °F 100% 29.82 in 2.0 mi Calm Calm - N/A   Overcast
4:35 AM 39.2 °F - 39.2 °F 100% 29.80 in 0.8 mi Calm Calm - N/A   Overcast
4:55 AM 39.2 °F - 39.2 °F 100% 29.80 in 0.5 mi Calm Calm - N/A Rain Light Rain
5:15 AM 39.2 °F - 39.2 °F 100% 29.80 in 1.2 mi Calm Calm - N/A   Drizzle
5:35 AM 39.2 °F - 39.2 °F 100% 29.80 in 1.8 mi Calm Calm - 0.02 in Rain Rain
5:55 AM 41.0 °F - 41.0 °F 100% 29.80 in 1.2 mi Calm Calm - 0.04 in Rain Light Rain
6:15 AM 39.2 °F - 39.2 °F 100% 29.79 in 1.5 mi Calm Calm - 0.02 in Rain Light Rain
6:35 AM 39.2 °F - 39.2 °F 100% 29.80 in 1.0 mi Calm Calm - 0.02 in Rain Rain
6:55 AM 39.2 °F - 39.2 °F 100% 29.80 in 0.8 mi Calm Calm - 0.03 in   Light Drizzle
7:15 AM 39.2 °F - 39.2 °F 100% 29.80 in 0.8 mi Calm Calm - N/A Rain Light Rain
7:35 AM 41.0 °F - 41.0 °F 100% 29.79 in 1.5 mi Calm Calm - N/A   Overcast
7:55 AM 39.2 °F - 39.2 °F 100% 29.79 in 0.5 mi Calm Calm - N/A Rain Light Rain
8:15 AM 39.2 °F - 39.2 °F 100% 29.79 in 1.2 mi Calm Calm - N/A   Overcast
8:35 AM 41.0 °F - 41.0 °F 100% 29.81 in 2.0 mi Calm Calm - N/A Rain Rain
8:55 AM 41.0 °F 39.0 °F 41.0 °F 100% 29.82 in 3.0 mi West 3.5 mph - 0.04 in Rain Rain
9:15 AM 41.0 °F 35.8 °F 41.0 °F 100% 29.85 in 4.0 mi West 8.1 mph - 0.02 in Rain Light Rain
9:35 AM 41.0 °F 34.7 °F 41.0 °F 100% 29.84 in 7.0 mi WNW 10.4 mph 24.2 mph 0.03 in Rain Light Rain
9:55 AM 41.0 °F 35.8 °F 41.0 °F 100% 29.86 in 10.0 mi West 8.1 mph 19.6 mph 0.04 in   Drizzle
10:15 AM 41.0 °F 35.2 °F 41.0 °F 100% 29.86 in 10.0 mi WNW 9.2 mph - N/A Rain Rain
10:35 AM 42.8 °F 39.3 °F 42.8 °F 100% 29.84 in 10.0 mi WNW 5.8 mph - N/A Rain Rain
10:55 AM 42.8 °F 39.3 °F 41.0 °F 93% 29.85 in 10.0 mi West 5.8 mph - 0.01 in Rain Rain
11:15 AM 42.8 °F 40.1 °F 42.8 °F 100% 29.84 in 10.0 mi West 4.6 mph - N/A   Light Drizzle
11:35 AM 42.8 °F 39.3 °F 42.8 °F 100% 29.83 in 10.0 mi WSW 5.8 mph - N/A   Drizzle
11:55 AM 44.6 °F 40.7 °F 42.8 °F 93% 29.82 in 10.0 mi WNW 6.9 mph - N/A   Light Drizzle
12:15 PM 46.4 °F 41.1 °F 42.8 °F 87% 29.79 in 10.0 mi WNW 11.5 mph 16.1 mph N/A   Mostly Cloudy
12:35 PM 46.4 °F 42.9 °F 42.8 °F 87% 29.78 in 10.0 mi West 6.9 mph - N/A   Mostly Cloudy
12:55 PM 46.4 °F 42.4 °F 42.8 °F 87% 29.79 in 10.0 mi West 8.1 mph 16.1 mph N/A   Overcast
1:15 PM 46.4 °F 43.5 °F 42.8 °F 87% 29.80 in 10.0 mi West 5.8 mph - N/A   Overcast
1:35 PM 46.4 °F 41.5 °F 41.0 °F 81% 29.82 in 10.0 mi WNW 10.4 mph 16.1 mph N/A   Overcast
1:55 PM 46.4 °F 42.9 °F 39.2 °F 76% 29.81 in 10.0 mi WNW 6.9 mph - N/A   Mostly Cloudy
2:15 PM 46.4 °F 41.9 °F 39.2 °F 76% 29.82 in 10.0 mi WNW 9.2 mph 16.1 mph N/A   Scattered Clouds
2:35 PM 48.2 °F - 39.2 °F 71% 29.83 in 10.0 mi WNW 9.2 mph - N/A   Scattered Clouds
2:55 PM 48.2 °F - 35.6 °F 62% 29.84 in 10.0 mi West 8.1 mph 20.7 mph N/A   Scattered Clouds
3:15 PM 48.2 °F - 35.6 °F 62% 29.84 in 10.0 mi WNW 13.8 mph 20.7 mph N/A   Scattered Clouds
3:35 PM 48.2 °F - 33.8 °F 58% 29.85 in 10.0 mi West 10.4 mph 19.6 mph N/A   Clear
3:55 PM 48.2 °F - 33.8 °F 58% 29.85 in 10.0 mi WNW 15.0 mph 20.7 mph N/A   Clear
4:15 PM 48.2 °F - 33.8 °F 58% 29.85 in 10.0 mi WNW 6.9 mph - N/A   Clear
4:35 PM 48.2 °F - 33.8 °F 58% 29.86 in 10.0 mi WNW 3.5 mph - N/A   Clear
4:55 PM 46.4 °F 42.9 °F 33.8 °F 62% 29.87 in 10.0 mi WNW 6.9 mph - N/A   Clear
5:15 PM 44.6 °F 42.2 °F 32.0 °F 61% 29.88 in 10.0 mi West 4.6 mph - N/A   Clear
5:35 PM 42.8 °F - 32.0 °F 66% 29.88 in 10.0 mi Calm Calm - N/A   Clear
5:55 PM 41.0 °F - 32.0 °F 70% 29.88 in 10.0 mi Calm Calm - N/A   Clear
6:15 PM 37.4 °F - 32.0 °F 81% 29.89 in 10.0 mi Calm Calm - N/A   Clear
6:35 PM 37.4 °F 34.9 °F 32.0 °F 81% 29.90 in 10.0 mi WSW 3.5 mph - N/A   Clear
6:55 PM 39.2 °F - 30.2 °F 70% 29.90 in 10.0 mi Calm Calm - N/A   Clear
7:15 PM 35.6 °F - 30.2 °F 81% 29.91 in 10.0 mi Calm Calm - N/A   Clear
7:35 PM 33.8 °F - 30.2 °F 87% 29.92 in 10.0 mi Calm Calm - N/A   Clear
7:55 PM 32.0 °F - 30.2 °F 93% 29.92 in 10.0 mi Calm Calm - N/A   Clear
8:15 PM 32.0 °F - 30.2 °F 93% 29.93 in 10.0 mi Calm Calm - N/A   Clear
8:35 PM 32.0 °F - 30.2 °F 93% 29.94 in 10.0 mi Calm Calm - N/A   Clear
8:55 PM 33.8 °F - 30.2 °F 87% 29.94 in 10.0 mi Calm Calm - N/A   Clear
9:15 PM 32.0 °F - 30.2 °F 93% 29.96 in 10.0 mi Calm Calm - N/A   Clear
9:35 PM 33.8 °F - 32.0 °F 93% 29.95 in 10.0 mi Calm Calm - N/A   Clear
9:55 PM 33.8 °F - 30.2 °F 87% 29.95 in 10.0 mi Calm Calm - N/A   Clear
10:15 PM 30.2 °F - 30.2 °F 100% 29.95 in 10.0 mi Calm Calm - N/A   Clear
10:35 PM 30.2 °F - 30.2 °F 100% 29.95 in 10.0 mi Calm Calm - N/A   Clear
10:55 PM 30.2 °F - 30.2 °F 100% 29.94 in 10.0 mi Calm Calm - N/A   Clear
11:15 PM 28.4 °F - 28.4 °F 100% 29.94 in 10.0 mi Calm Calm - N/A   Clear
11:35 PM 28.4 °F - 28.4 °F 100% 29.93 in 10.0 mi Calm Calm - N/A   Clear
11:55 PM 28.4 °F - 28.4 °F 100% 29.93 in 10.0 mi Calm Calm - N/A   Clear